[[{"header":{"parameterUnit":"m.s-1","parameterCategory":1,"la1":30.2991,"la2":30.254,"lo1":-89.0895,"lo2":-89.0444,"dy":0.0017,"dx":0.0017,"nx":28,"ny":28,"refTime":"2025-04-22T09:00:00:Z","depth":0,"parameterNumber":2,"parameterNumberName":"U-component_of_WINDS"},"data":[0,0,0,0,0,0,0,0,0,0,0,0,0,0,0,0,0,0,0,0,0,0,0,0,0,0,0,0,0,0,0,0,0,0,0,0,0,0,0,0,0,0,0,0,0,0,0,0,0,0,0,0,0,0,0,0,0,0,-0.6882,-0.6883,0,-0.6945,-0.6946,-0.6947,-0.6982,-0.6982,-0.6982,-0.6982,-0.7048,-0.705,-0.7051,0,0,0,0,0,0,0,0,0,0,0,0,0,-0.6793,-0.6794,-0.6882,-0.6883,-0.6884,-0.6945,-0.6946,-0.6947,-0.6982,-0.6982,-0.6982,-0.6982,-0.7047,-0.7049,-0.7051,0,0,0,0,0,0,0,0,0,0,0,0,0,-0.6841,-0.6795,-0.6882,-0.6908,-0.6911,-0.6945,-0.6946,-0.6947,-0.6982,-0.6982,-0.6982,-0.6982,-0.7047,-0.7049,-0.7052,-0.7064,0,0,-0.7059,-0.706,0,0,0,0,0,0,0,0,-0.6839,-0.6845,-0.6904,-0.6907,-0.691,-0.6956,-0.6939,-0.6986,-0.6982,-0.6955,-0.6982,-0.6982,-0.7017,-0.7022,-0.7034,-0.7067,-0.707,-0.7059,-0.7061,-0.7062,-0.7063,0,0,0,0,0,0,0,-0.6835,-0.6842,-0.6907,-0.6905,-0.6908,-0.6918,-0.6925,-0.6948,-0.6985,-0.6957,-0.696,-0.6967,-0.7019,-0.7031,-0.7036,-0.7071,-0.7059,-0.7062,-0.7063,-0.7064,-0.7118,-0.7118,0,0,0,0,0,0,-0.6827,-0.6839,-0.6905,-0.6909,-0.6874,-0.6919,-0.6927,-0.6941,-0.6984,-0.6991,-0.6967,-0.6969,-0.7027,-0.7033,-0.7038,-0.7056,-0.7062,-0.7064,-0.7066,-0.7118,-0.7118,-0.7118,0,0,0,0,0,0,-0.6825,-0.6833,-0.6903,-0.6875,-0.6884,-0.6921,-0.6936,-0.6942,-0.6955,-0.6992,-0.6998,-0.6973,-0.7027,-0.7034,-0.7057,-0.7059,-0.7065,-0.7068,-0.7118,-0.7118,-0.7118,-0.7091,0,0,0,0,0,0,-0.6823,-0.6832,-0.6837,-0.6875,-0.6886,-0.692,-0.6936,-0.6943,-0.6959,-0.6961,-0.6999,-0.7005,-0.7028,-0.7053,-0.706,-0.7062,-0.707,-0.7119,-0.7118,-0.7118,-0.7092,-0.709,-0.7088,0,0,0,0,0,-0.6819,-0.6827,-0.6837,-0.6845,-0.6892,-0.692,-0.6927,-0.6953,-0.6958,-0.6964,-0.6988,-0.7004,-0.7057,-0.7056,-0.7063,-0.7066,-0.7119,-0.7118,-0.7118,-0.7093,-0.709,-0.7088,0,0,0,0,0,0,-0.6788,-0.6832,-0.6844,-0.6863,-0.6888,-0.6926,-0.6934,-0.6949,-0.6973,-0.6974,-0.7006,-0.7014,-0.7034,-0.7052,-0.7049,-0.7081,-0.709,-0.7091,-0.7068,-0.7066,-0.7064,-0.7059,-0.7072,0,0,0,0,0,-0.6783,-0.6802,-0.684,-0.6854,-0.6865,-0.6897,-0.691,-0.6928,-0.6955,-0.6966,-0.6991,-0.7017,-0.7039,-0.7054,-0.7077,-0.7095,-0.7104,-0.7101,-0.7099,-0.7097,-0.7098,-0.711,-0.7109,-0.7118,-0.7118,-0.7118,0,0,-0.6774,-0.68,-0.681,-0.6848,-0.6869,-0.6888,-0.6906,-0.6925,-0.694,-0.6969,-0.6992,-0.7011,-0.7042,-0.7063,-0.7073,-0.7079,-0.7098,-0.7097,-0.7095,-0.7097,-0.711,-0.7109,-0.7108,-0.7118,-0.7118,-0.7118,0,0,-0.6767,-0.6789,-0.6803,-0.6823,-0.6855,-0.6876,-0.688,-0.6916,-0.693,-0.6954,-0.6976,-0.6994,-0.7032,-0.7053,-0.7069,-0.707,-0.7086,-0.7077,-0.7067,-0.7078,-0.7078,-0.7077,-0.7078,-0.7078,-0.7078,-0.7078,-0.7078,0,-0.6752,-0.6781,-0.6808,-0.6826,-0.6842,-0.6869,-0.6884,-0.6903,-0.694,-0.6951,-0.6957,-0.7006,-0.7028,-0.7054,-0.7055,-0.7066,-0.7072,-0.7073,-0.7076,-0.7075,-0.7075,-0.7076,-0.7077,-0.7076,-0.7076,-0.7077,-0.7077,0,-0.6761,-0.6781,-0.6788,-0.6823,-0.684,-0.6857,-0.6887,-0.6901,-0.6917,-0.6938,-0.6962,-0.699,-0.702,-0.7027,-0.7044,-0.7056,-0.7059,-0.7069,-0.7079,-0.7073,-0.7074,-0.7075,-0.7074,-0.7075,-0.7075,-0.7076,0,0,-0.6735,-0.6785,-0.6788,-0.6804,-0.6841,-0.6858,-0.6875,-0.6904,-0.6915,-0.6941,-0.6957,-0.6989,-0.6999,-0.7017,-0.7036,-0.7045,-0.7045,-0.7055,-0.7057,-0.7053,-0.7061,-0.7053,-0.7053,-0.7056,-0.7056,-0.7056,-0.7059,0,-0.6734,-0.6766,-0.6792,-0.6815,-0.6834,-0.686,-0.6876,-0.6901,-0.6921,-0.694,-0.6963,-0.6985,-0.6997,-0.7008,-0.7019,-0.7043,-0.7047,-0.7043,-0.7072,-0.7072,-0.7063,-0.7054,-0.7045,-0.7046,-0.706,-0.706,-0.706,0,-0.6736,-0.676,-0.6785,-0.6821,-0.683,-0.6843,-0.6871,-0.689,-0.6918,-0.6932,-0.6952,-0.6972,-0.6993,-0.7001,-0.703,-0.7026,-0.704,-0.7053,-0.7054,-0.7058,-0.7066,-0.7058,-0.7047,-0.7047,-0.7061,-0.7061,-0.7061,0,-0.6715,-0.6754,-0.6774,-0.6788,-0.6829,-0.6838,-0.6856,-0.6885,-0.69,-0.6925,-0.6936,-0.6963,-0.6978,-0.6998,-0.7025,-0.7028,-0.7052,-0.7062,-0.7064,-0.7064,-0.7068,-0.7068,-0.706,-0.7076,-0.7076,-0.7076,-0.7076,0,-0.6711,-0.6726,-0.6766,-0.6778,-0.6795,-0.6824,-0.6841,-0.6861,-0.6887,-0.6904,-0.6928,-0.6944,-0.6978,-0.6998,-0.7019,-0.7041,-0.7047,-0.7059,-0.7065,-0.7057,-0.7056,-0.7066,-0.7067,-0.7076,-0.7076,-0.7076,-0.7076,0,-0.6691,-0.6718,-0.6742,-0.6779,-0.6789,-0.68,-0.6833,-0.6846,-0.6868,-0.6889,-0.6896,-0.693,-0.6955,-0.6984,-0.7018,-0.7032,-0.7052,-0.706,-0.7042,-0.7045,-0.7047,-0.7046,-0.7046,-0.7047,-0.7062,-0.7062,-0.7062,0,-0.6686,-0.6698,-0.6737,-0.675,-0.6767,-0.6788,-0.6804,-0.6833,-0.6849,-0.6883,-0.6892,-0.6919,-0.6942,-0.6981,-0.7009,-0.7035,-0.7044,-0.7042,-0.7049,-0.7041,-0.7045,-0.7044,-0.7045,-0.7041,-0.704,-0.704,-0.704,0,-0.6675,-0.6688,-0.671,-0.6737,-0.6755,-0.6778,-0.6801,-0.6811,-0.6845,-0.6862,-0.6888,-0.6905,-0.6941,-0.6967,-0.6997,-0.7016,-0.7034,-0.7038,-0.704,-0.7032,-0.7022,-0.7028,-0.7038,-0.7037,-0.7038,-0.7038,-0.7038,-0.7038,-0.6663,-0.6675,-0.6704,-0.6728,-0.6749,-0.677,-0.6785,-0.6808,-0.683,-0.6861,-0.6877,-0.6902,-0.6932,-0.6974,-0.6992,-0.7013,-0.7019,-0.7022,-0.7023,-0.7023,-0.7021,-0.7018,-0.7019,-0.7019,-0.7019,-0.7019,-0.7019,0,-0.6654,-0.6674,-0.6695,-0.6728,-0.6746,-0.6761,-0.6788,-0.6803,-0.6825,-0.685,-0.6872,-0.6902,-0.6928,-0.6958,-0.6986,-0.6997,-0.7006,-0.7004,-0.7003,-0.7007,-0.7014,-0.701,-0.6996,-0.6996,-0.6996,-0.6996,-0.6996,-0.6996,-0.6651,-0.6672,-0.6688,-0.672,-0.674,-0.6765,-0.678,-0.68,-0.682,-0.6852,-0.6874,-0.6893,-0.6921,-0.6951,-0.6976,-0.6984,-0.6993,-0.6989,-0.6999,-0.7005,-0.7007,-0.7009,-0.7005,-0.699,-0.699,-0.6991,-0.6991,-0.6991]},{"header":{"parameterUnit":"m.s-1","parameterCategory":1,"la1":30.2991,"la2":30.254,"lo1":-89.0895,"lo2":-89.0444,"dy":0.0017,"dx":0.0017,"nx":28,"ny":28,"refTime":"2025-04-22T09:00:00:Z","depth":0,"parameterNumber":3,"parameterNumberName":"V-component_of_WINDS"},"data":[0,0,0,0,0,0,0,0,0,0,0,0,0,0,0,0,0,0,0,0,0,0,0,0,0,0,0,0,0,0,0,0,0,0,0,0,0,0,0,0,0,0,0,0,0,0,0,0,0,0,0,0,0,0,0,0,0,0,2.5784,2.5785,0,2.5829,2.583,2.583,2.5818,2.5817,2.5817,2.5816,2.586,2.5862,2.5864,0,0,0,0,0,0,0,0,0,0,0,0,0,2.5687,2.5689,2.5784,2.5785,2.5785,2.5829,2.583,2.583,2.5818,2.5817,2.5816,2.5815,2.5859,2.5861,2.5864,0,0,0,0,0,0,0,0,0,0,0,0,0,2.573,2.569,2.5784,2.5785,2.5785,2.5829,2.583,2.583,2.5819,2.5817,2.5816,2.5815,2.5858,2.5861,2.5864,2.5909,0,0,2.5873,2.5875,0,0,0,0,0,0,0,0,2.5728,2.5734,2.5784,2.5785,2.5786,2.5817,2.5811,2.5857,2.5819,2.5806,2.5816,2.5814,2.5846,2.585,2.5862,2.5911,2.5913,2.5874,2.5875,2.5877,2.5878,0,0,0,0,0,0,0,2.5725,2.5732,2.5802,2.5785,2.5786,2.5782,2.5787,2.582,2.5833,2.5807,2.5806,2.5812,2.5847,2.5859,2.5862,2.5914,2.5874,2.5876,2.5878,2.5879,2.6003,2.6004,0,0,0,0,0,0,2.5722,2.5729,2.58,2.5803,2.5753,2.5785,2.579,2.5808,2.5833,2.5835,2.5813,2.5811,2.5854,2.5859,2.5864,2.5919,2.5877,2.5879,2.5881,2.6001,2.6003,2.6005,0,0,0,0,0,0,2.572,2.5728,2.5799,2.5766,2.5775,2.5788,2.5808,2.581,2.5822,2.5837,2.5839,2.5823,2.5853,2.586,2.5898,2.592,2.5881,2.5884,2.6,2.6002,2.6004,2.6028,0,0,0,0,0,0,2.5717,2.5727,2.5745,2.5767,2.5777,2.5833,2.581,2.5811,2.5827,2.5825,2.5847,2.585,2.5853,2.5894,2.5901,2.5923,2.5886,2.5998,2.6001,2.6003,2.6025,2.603,2.6035,0,0,0,0,0,2.5713,2.5749,2.5746,2.5755,2.5799,2.5834,2.584,2.5843,2.5829,2.5847,2.5856,2.5849,2.5916,2.5898,2.5906,2.5929,2.5996,2.6,2.6003,2.6023,2.6029,2.6035,0,0,0,0,0,0,2.5729,2.5752,2.5749,2.5793,2.5812,2.5832,2.5854,2.585,2.5873,2.587,2.5873,2.5878,2.5917,2.5927,2.5906,2.5974,2.5954,2.5959,2.5966,2.5973,2.5978,2.5974,2.5888,0,0,0,0,0,2.5738,2.5765,2.5783,2.582,2.583,2.5841,2.5856,2.5857,2.5876,2.5884,2.5897,2.5915,2.5941,2.5957,2.5982,2.6027,2.6031,2.6047,2.6052,2.6056,2.606,2.6085,2.6092,2.6016,2.6016,2.6016,0,0,2.5755,2.5772,2.5788,2.5824,2.5838,2.5866,2.5847,2.5877,2.5897,2.5888,2.5926,2.5936,2.5957,2.5999,2.6018,2.6008,2.6082,2.606,2.6063,2.6065,2.6089,2.6096,2.6103,2.6018,2.6018,2.6017,0,0,2.5802,2.5817,2.585,2.5865,2.5888,2.5895,2.5903,2.5924,2.5931,2.5968,2.5962,2.5986,2.603,2.6045,2.6059,2.6112,2.6106,2.612,2.6146,2.617,2.6176,2.6182,2.6201,2.6207,2.6124,2.6124,2.6124,0,2.5821,2.5863,2.5867,2.5898,2.5913,2.5908,2.5941,2.5955,2.5984,2.5995,2.5984,2.6039,2.6053,2.6099,2.6112,2.6123,2.6132,2.6117,2.6175,2.6181,2.6186,2.6204,2.6211,2.6126,2.6126,2.6126,2.6125,0,2.5886,2.5915,2.5938,2.5967,2.5986,2.6017,2.6026,2.6044,2.6044,2.6052,2.609,2.6107,2.6134,2.6145,2.6145,2.6191,2.6185,2.6174,2.6154,2.6194,2.6212,2.6219,2.6128,2.6128,2.6127,2.6127,0,0,2.5943,2.5974,2.5983,2.5996,2.6022,2.6044,2.6075,2.6103,2.6118,2.6139,2.6165,2.6203,2.6194,2.6209,2.621,2.6232,2.6273,2.6219,2.622,2.6228,2.6325,2.6333,2.6341,2.6269,2.6271,2.6272,2.6323,0,2.5992,2.6047,2.6052,2.6102,2.6129,2.6124,2.6151,2.617,2.6178,2.6202,2.6211,2.6237,2.6223,2.6233,2.6254,2.6264,2.6293,2.626,2.6294,2.6295,2.6288,2.635,2.6357,2.6405,2.633,2.6331,2.6332,0,2.6056,2.6079,2.6132,2.6154,2.6165,2.619,2.6216,2.6239,2.6259,2.6264,2.6282,2.628,2.6312,2.6291,2.6335,2.6313,2.6327,2.6334,2.6336,2.6339,2.6316,2.6354,2.642,2.6428,2.6343,2.6342,2.6341,0,2.6093,2.6137,2.6175,2.6186,2.6213,2.623,2.6242,2.6261,2.6277,2.63,2.6311,2.6337,2.6351,2.6371,2.6376,2.6361,2.642,2.64,2.6425,2.6425,2.6437,2.6436,2.6507,2.6447,2.6447,2.6446,2.6446,0,2.6147,2.6179,2.6191,2.6215,2.6251,2.6256,2.6292,2.6302,2.6319,2.6344,2.6341,2.6365,2.6371,2.6395,2.64,2.6436,2.6442,2.6447,2.6447,2.6447,2.6446,2.6456,2.6453,2.6448,2.6448,2.6447,2.6447,0,2.6193,2.6203,2.6244,2.6265,2.6272,2.6298,2.6316,2.6338,2.6346,2.6378,2.6385,2.6398,2.6427,2.6435,2.6469,2.6472,2.6514,2.6512,2.6507,2.6507,2.6532,2.653,2.6611,2.6622,2.6555,2.6555,2.6556,0,2.6227,2.6252,2.6277,2.6294,2.6306,2.6333,2.635,2.6356,2.6374,2.64,2.6419,2.6447,2.647,2.6516,2.6528,2.6554,2.6553,2.6579,2.6556,2.6555,2.6553,2.6552,2.6554,2.6584,2.6584,2.6585,2.6585,0,2.6286,2.629,2.6315,2.6342,2.6363,2.6384,2.6404,2.6418,2.6427,2.6447,2.6477,2.6495,2.653,2.6558,2.6585,2.6596,2.6592,2.6593,2.66,2.6599,2.6596,2.6598,2.6519,2.6591,2.659,2.659,2.6589,2.6589,2.6328,2.635,2.6371,2.6399,2.6415,2.6434,2.6456,2.6468,2.6493,2.6522,2.6524,2.6556,2.6576,2.6612,2.6625,2.665,2.6642,2.6652,2.6655,2.6657,2.666,2.6592,2.6655,2.6655,2.6655,2.6654,2.6654,0,2.6387,2.64,2.6426,2.6455,2.6477,2.6472,2.6495,2.6513,2.6542,2.6561,2.6584,2.6618,2.6646,2.666,2.6688,2.6705,2.6704,2.6712,2.6711,2.6713,2.6665,2.6656,2.6712,2.6712,2.6712,2.6712,2.6712,2.6712,2.642,2.6457,2.6463,2.6509,2.6522,2.6554,2.6567,2.6585,2.66,2.6639,2.6662,2.6671,2.6689,2.6718,2.6743,2.6746,2.6756,2.6765,2.6768,2.6723,2.6717,2.6711,2.6703,2.6768,2.6768,2.6814,2.6814,2.6815]}]]